Regional Weather Roundup
Issued by NWS Upton, NY

Current Version | Previous Version | Graphics & Text | Print | Product List | Glossary Off
Versions: 1 2 3 4 5 6 7 8 9 10 11 12 13 14 15 16 17 18 19 20 21 22 23 24 25 26 27 28 29 30 31 32 33 34 35 36 37 38 39 40 41 42 43 44 45 46 47 48 49 50

239
ASUS41 KOKX 230909
RWROKX

REGIONAL WEATHER ROUNDUP
NATIONAL WEATHER SERVICE NEW YORK NY
500 AM EDT FRI JUN 23 2017

NOTE: "FAIR" INDICATES FEW OR NO CLOUDS BELOW 12,000 FEET WITH NO
SIGNIFICANT WEATHER AND/OR OBSTRUCTIONS TO VISIBILITY.

NYZ071-072-176-178-NJZ106-104-231000-
NEW YORK CITY METRO AREA

CITY           SKY/WX    TMP DP  RH WIND       PRES   REMARKS
Central Park   PTCLDY    78  70  76 VRB7      29.85F
Bronx Bot Gard   N/A     79  68  69 SW13      29.84R
LaGuardia APRT MOCLDY    80  72  76 SW8       29.82S
Kennedy INTL   CLOUDY    71  70  96 S7        29.84S
Breezy Point     N/A     68 N/A N/A S3          N/A
Newark/Liberty MOCLDY    77  71  82 SW8       29.82F
Teterboro      PTCLDY    76  70  82 SW5       29.81S
$$

NYZ177-179-078>081-231000-
LONG ISLAND NEW YORK

CITY           SKY/WX    TMP DP  RH WIND       PRES   REMARKS
Jones Beach      N/A     68 N/A N/A S5          N/A
Matinecock PT    N/A    N/A N/A N/A S3          N/A
Farmingdale    NOT AVBL
MacArthur/ISP  CLOUDY    72  70  93 S5        29.84S
Shirley        PTCLDY    72  72 100 CALM      29.84F
Mt Sinai Harb    N/A    N/A N/A N/A S7          N/A
Westhampton    CLOUDY    71  68  90 SW5       29.85F
East Hampton   FAIR      68  67  95 SW3       29.84S
Montauk          N/A     70  69  97 CALM      29.85S
$$

NYZ052-065-067-231000-
HUDSON VALLEY

CITY           SKY/WX    TMP DP  RH WIND       PRES   REMARKS
White Plains   PTCLDY    73  70  88 SW3       29.83F
Larchmont Harb   N/A     72 N/A N/A S7          N/A
Croton O-T Hud   N/A     72 N/A N/A MISG        N/A
Newburgh       MOCLDY    72  70  94 CALM      29.84S
Montgomery     CLOUDY    71  67  87 CALM      29.82S
Poughkeepsie   CLOUDY    70  65  84 CALM      29.80F
Albany         CLOUDY    73  63  70 S9        29.78S
$$

NJZ001-105-106-008-010-013-015-019>022-104-231000-
NEW JERSEY

CITY           SKY/WX    TMP DP  RH WIND       PRES   REMARKS
Newark/Liberty MOCLDY    77  71  82 SW8       29.82F
Teterboro      PTCLDY    76  70  82 SW5       29.81S
Caldwell       CLOUDY    77  69  76 VRB3      29.83S
Somerville     PTCLDY    70  69  97 CALM      29.82F FOG
Linden         FAIR      77  70  80 CALM      29.83S
Perth Amboy      N/A     75 N/A N/A SW6         N/A
Sussex         CLOUDY    70  68  93 CALM      29.84R
Andover          N/A     71  68  90 CALM      29.85S
Trenton        PTCLDY    74  72  93 SW5       29.84F
Millville      PTCLDY    75  75 100 CALM      29.86S
Atlantic City  PTCLDY    76  74  93 SW6       29.87S
Wrightstown    PTCLDY    73  72  94 SW6       29.83S
Toms River     PTCLDY    73  72  96 SW6       29.87S
Belmar         PTCLDY    74  71  91 SW6       29.86F
$$

PAZ047>061-062-071-231000-
EASTERN PENNSYLVANIA

CITY           SKY/WX    TMP DP  RH WIND       PRES   REMARKS
Philadelphia   CLOUDY    77  72  84 SW7       29.85F
Allentown      MOCLDY    72  68  87 CALM      29.85S
Scranton       PTCLDY    70  67  90 CALM      29.85S
$$

CTZ002-004>006-009-010-012-RIZ004-006-007-MAZ004-011-015-231000-
SOUTHERN NEW ENGLAND
 IN CT

CITY           SKY/WX    TMP DP  RH WIND       PRES   REMARKS
Bradley INTL   MOCLDY    67  64  90 S5        29.82S
Hartford       CLOUDY    71  68  90 CALM      29.82S
Danbury        CLOUDY    72  68  87 CALM      29.84F
Wtrbury/Oxford CLOUDY    68  63  83 CALM      29.87S
Bridgeport     CLOUDY    73  67  81 CALM      29.82F
Meriden        CLOUDY    68  67  96 SE3       29.83S
New Haven      NOT AVBL
Chester        FAIR      72  70  94 SW5       29.85S
Groton         CLOUDY    67  65  93 S3        29.83S FOG
Wilimantic     CLOUDY    66  62  87 CALM      29.84S

 IN RI

CITY           SKY/WX    TMP DP  RH WIND       PRES   REMARKS
Providence     CLOUDY    67  67 100 S6        29.83F FOG
Block Island   CLOUDY    66  65  96 SW13      29.85S FOG
Westerly       CLOUDY    68  67  96 CALM      29.85S FOG
 IN MA

CITY           SKY/WX    TMP DP  RH WIND       PRES   REMARKS
Boston         MOCLDY    68  61  78 VRB3      29.81S
Worcester      PTCLDY    65  60  84 SW12      29.84F
Westfield      NOT AVBL
Provincetown   PTCLDY    66  63  90 S10         N/A
Nantucket      FOG       63  63 100 S9        29.87S VSB 1/4
$$

ANZ330-335-338-340-345-350-353-355-231000-
COASTAL MARINE OBSERVATIONS


STATION/POSITION TIME  SKY/WX   TEMP    WIND        PRES    VSBY  WAVE
                                AIR SEA DIR/SP/G                  HT/PER
                 (UTC)          (F)     (DEG/KT/KT) (MB)    (MI)  (FT/S)
NY HARB ENTRANCE 0750            69 67  200/ 12/ 12 1010.5          2/ 5
20 S FIRE ISLAND 0850            71 69  220/ 12/ 14 1010.1          2/ 5
GREAT SOUTH BAY  0830            72 75  230/  8/ 14   N/A
23 SSW MONTAUK P 0750            67 64              1011.0          2/ 6
15 E BARNEGAT LI 0830               65                N/A           2/ 9
HUDSON CANYON    0850            68 66  190/ 10/ 10 1011.6          2/ 6
KINGS POINT      0830            76 67  210/  7/  8 1009.7
EXECUTION ROCKS  0845            74     170/  8/  8   N/A
CENTRAL LI SOUND 0845            70      CALM  /  2   N/A           1
EASTERN LI SOUND NOT AVBL
ROBBINS REEF     0836                   240/  8/ 10 1010.6
$$


>>>>>>>>>>>>>>>>>>>>>>>>>>>> KEY <<<<<<<<<<<<<<<<<<<<<<<<<<<
>                                                          <
>     SKY/WX - Sky Condition/Present Weather               <
>     TMP    - Temperature in Fahrenheit                   <
>     DP     - Dew Point in Fahrenheit                     <
>     RH     - Relative Humidity in Percent                <
>     WIND   - Direction (from) and Speed in MPH           <
>     PRES   - Mean Sea Level Pressure (inches of Hg)      <
>     WCI    - Wind Chill Index                            <
>     VSB    - VISIBILITY IN MILES                         <
>     HX     - HEAT INDEX                                  <
>     TC     - TEMPERATURE IN CELSIUS                      <
>     VRB    - VARIABLE WIND DIRECTION                     <
>                                                          <
>>>>>>>>>>>>>>>>>>>>>>>>>>>> KEY <<<<<<<<<<<<<<<<<<<<<<<<<<<




USA.gov is the U.S. government's official web portal to all federal, state and local government web resources and services.